sat.trackr.live / text

‹ back to catalog

INTELSAT 16 (IS-16)

NORAD 36397 · 2010-006A

PAYLOAD ACTIVE UNKNOWN

§ Identity

Operator
Country
ITSO
Launch date
2010-02-12
Launch site
TYMSC
Launch vehicle
Mass (kg)
RCS (m²)
266.95

Purposes: comms

External: N2YO · Heavens-Above · Gunter

§ Orbital elements

Epoch: 2026-09-09T00:00:18.811008Z

Period
1,436.12 min
Inclination
0.0499°
Eccentricity
0.0002688
Mean motion
1.00270511 rev/d
Perigee alt
35,775.6 km
Apogee alt
35,798.3 km
Semi-major
42,165.1 km
B*
0.0000e+0
RAAN
284.0921°
Arg perigee
263.0171°
Mean anomaly
84.8197°
Rev number
6,049

§ Raw data

INTELSAT 16 (IS-16)1 36397U 10006A   26252.00021772 -.00000266  00000+0  00000+0 0  99942 36397   0.0499 284.0921 0002688 263.0171  84.8197  1.00270511 60495

JSON: /api/v1/satellites/36397 · /tle

For live sub-satellite position, see the globe view (requires WebGL).

§ Visibility from observer

Set your observer location to see the next 7 days of passes ≥ 10°. The values pass through the URL so the page stays shareable.

No JS? Fill the form by hand. The geolocation button needs JavaScript.